Location: Wharf Road Observatory
(44.7802°N, 65.6070°W)
Time: 02:47:46
(UTC-03:00)

X-37B - Visible Passes

Search period start: 28 September 2022 00:00
Search period end: 08 October 2022 00:00
Orbit: 330 x 340 km, 45.0° (Epoch: 02 September)

Date Brightness Start Highest point End Pass type
(mag) Time Alt. Az. Time Alt. Az. Time Alt. Az.
28 Sep 0.4 05:36:32 69° SSE 05:36:32 69° SSE 05:39:18 10° E visible
29 Sep 0.2 05:56:07 45° W 05:56:53 86° N 05:59:45 10° E visible
30 Sep 3.9 04:44:28 12° E 04:44:28 12° E 04:44:43 10° E visible
30 Sep 0.3 06:15:42 23° W 06:17:21 85° N 06:20:14 10° E visible
01 Oct 3.0 05:04:05 21° E 05:04:05 21° E 05:05:11 10° E visible
01 Oct 0.3 06:35:18 13° W 06:37:48 71° SSW 06:40:39 10° ESE visible
02 Oct 1.7 05:23:43 38° E 05:23:43 38° E 05:25:39 10° E visible
03 Oct 0.4 05:43:25 67° SSE 05:43:25 67° SSE 05:46:05 10° ESE visible
04 Oct 0.9 06:03:13 37° SW 06:03:35 39° SSW 06:06:19 10° SE visible
05 Oct 2.0 06:23:06 18° SW 06:23:50 20° SSW 06:26:01 10° SSE visible
